Location: Piotrkow Trybunalski
(51.4000°N, 19.6830°E)
Time: 06:24:18
(UTC+02:00)

Oscar 11 - Visible Passes

Search period start: 29 March 2023 00:00
Search period end: 08 April 2023 00:00
Orbit: 608 x 622 km, 97.7° (Epoch: 28 March)

Date Brightness Start Highest point End Pass type
(mag) Time Alt. Az. Time Alt. Az. Time Alt. Az.
29 Mar 9.8 04:02:43 10° NE 04:05:24 16° E 04:08:03 10° SE visible
29 Mar 7.0 05:37:37 10° N 05:41:53 67° WNW 05:46:07 10° SSW visible
30 Mar 9.4 04:17:53 10° NE 04:21:15 22° E 04:24:36 10° SE visible
31 Mar 8.9 04:33:16 10° NNE 04:37:04 30° E 04:40:52 10° SSE visible
01 Apr 8.3 04:48:45 10° NNE 04:52:50 42° E 04:56:55 10° S visible
02 Apr 7.6 05:04:20 10° NNE 05:08:35 60° E 05:12:49 10° S visible
03 Apr 10.1 03:46:18 10° ENE 03:47:33 11° E 03:48:48 10° ESE visible
03 Apr 7.1 05:19:58 10° NNE 05:24:17 85° ESE 05:28:34 10° SSW visible
04 Apr 9.8 04:00:49 10° NE 04:03:26 16° E 04:06:02 10° SE visible
04 Apr 7.0 05:35:40 10° N 05:39:56 69° WNW 05:44:12 10° SSW visible
05 Apr 9.5 04:15:56 10° NE 04:19:16 21° E 04:22:34 10° SE visible
06 Apr 9.0 04:31:16 10° NNE 04:35:03 29° E 04:38:49 10° SSE visible
07 Apr 8.4 04:46:43 10° NNE 04:50:48 41° E 04:54:52 10° S visible
